This demonstration page uses our WeatherBlox Daily Observations layout. Learn more.

Left ArrowRight Arrow

Hourly Observations for November 30, 2015

Temp ( °F °C ) Dew Point ( °F °C ) Humidity (%) Winds ( mph kmh ) Pressure ( in mb ) Visibility ( mi km ) Precip ( " mm )
12:51 am 00:51 Clear 33 0.6 20 -6.7 58 58 E 5 7 30.06 1018 10 16.0934 N/A
1:51 am 01:51 Clear 30 -1.1 20 -6.7 66 66 ENE 3 6 30.07 1018 10 16.0934 N/A
2:51 am 02:51 Clear 30 -1.1 21 -6.1 69 69 N 3 6 30.06 1018 10 16.0934 N/A
3:51 am 03:51 Clear 27 -2.8 19 -7.2 72 72 E 3 6 30.08 1019 10 16.0934 N/A
4:51 am 04:51 Clear 27 -2.8 19 -7.2 72 72 N N/A 30.08 1019 10 16.0934 N/A
5:51 am 05:51 Clear 27 -2.8 19 -7.2 72 72 SW 3 6 30.11 1020 10 16.0934 N/A
6:51 am 06:51 Clear 26 -3.3 19 -7.2 75 75 NNE 5 7 30.14 1021 10 16.0934 N/A
7:51 am 07:51 Sunny 33 0.6 22 -5.6 64 64 NE 5 7 30.14 1021 10 16.0934 N/A
8:51 am 08:51 undefined 40 4.4 24 -4.4 53 53 ESE 3 6 30.14 1021 10 16.0934 N/A
9:51 am 09:51 Sunny 44 6.7 24 -4.4 45 45 VRB 3 6 30.15 1021 10 16.0934 N/A
10:51 am 10:51 Sunny 47 8.3 23 -5 39 39 WNW 6 9 30.13 1020 10 16.0934 N/A
11:51 am 11:51 Sunny 50 10 23 -5 35 35 WNW 8 13 30.1 1019 10 16.0934 N/A
12:51 pm 12:51 Sunny 52 11.1 22 -5.6 31 31 W 9 15 30.06 1018 10 16.0934 N/A
1:51 pm 13:51 Sunny 55 12.8 20 -6.7 25 25 W 8 13 30.03 1017 10 16.0934 N/A
2:51 pm 14:51 Sunny 55 12.8 18 -7.8 23 23 WSW 5 7 30.02 1017 10 16.0934 N/A
3:51 pm 15:51 Sunny 55 12.8 18 -7.8 23 23 VRB 5 7 30.03 1017 10 16.0934 N/A
4:51 pm 16:51 Sunny 54 12.2 17 -8.3 23 23 WSW 7 11 30.03 1017 10 16.0934 N/A
5:51 pm 17:51 Clear 47 8.3 20 -6.7 34 34 WSW 5 7 30.06 1018 10 16.0934 N/A
6:51 pm 18:51 Clear 42 5.6 18 -7.8 38 38 NW 3 6 30.09 1019 10 16.0934 N/A
7:51 pm 19:51 Clear 38 3.3 18 -7.8 44 44 N N/A 30.07 1018 10 16.0934 N/A
8:51 pm 20:51 Clear 38 3.3 19 -7.2 46 46 S 3 6 30.06 1018 10 16.0934 N/A
9:51 pm 21:51 Clear 36 2.2 16 -8.9 44 44 N N/A 30.06 1018 10 16.0934 N/A
10:51 pm 22:51 Clear 35 1.7 17 -8.3 48 48 S 5 7 30.07 1018 10 16.0934 N/A
11:51 pm 23:51 Clear 32 undefined 18 -7.8 56 56 N N/A 30.08 1019 10 16.0934 N/A

Powered by AerisWeather